QZS-6 (MICHIBIKI-6)

Last updated on Mon Oct 20 2025 00:02:51 GMT+0000 (Coordinated Universal Time)

1 62876U 25023A 25292.07118968 -.00000237 00000+0 00000+0 0 9992 2 62876 0.0521 6.3530 0001440 211.1100 286.5368 1.00271850 2544
UTC large
Height (km)
Speed (km/s)
/
Latitude / Longitude
Inclination (degrees)
Orbital Period (minutes)
Azimuth
Elevation
Range (km)
Doppler Factor

Next 0 passes for location: London (51.5072 / 0.1276)

Sorry there are no passes over London.